sat.trackr.live / text

‹ back to catalog

STARLINK-32624

NORAD 61926 · 2024-207Q

PAYLOAD ACTIVE UNKNOWN

§ Identity

Operator
Country
US
Launch date
2024-11-11
Launch site
AFETR
Launch vehicle
Mass (kg)
RCS (m²)

Purposes: comms

External: N2YO · Heavens-Above · Gunter

§ Orbital elements

Epoch: 2026-05-24T21:40:59.198016Z

Period
94.26 min
Inclination
43.0006°
Eccentricity
0.0001800
Mean motion
15.27615822 rev/d
Perigee alt
481.7 km
Apogee alt
484.2 km
Semi-major
6,861.1 km
B*
8.3031e-4
RAAN
210.8444°
Arg perigee
274.7748°
Mean anomaly
85.2898°
Rev number
8,638

§ Raw data

STARLINK-326241 61926U 24207Q   26144.90346294  .00022682  00000+0  83031-3 0  99902 61926  43.0006 210.8444 0001800 274.7748  85.2898 15.27615822 86384

JSON: /api/v1/satellites/61926 · /tle

For live sub-satellite position, see the globe view (requires WebGL).

§ Visibility from observer

Set your observer location to see the next 7 days of passes ≥ 10°. The values pass through the URL so the page stays shareable.

No JS? Fill the form by hand. The geolocation button needs JavaScript.